Meteo orario Lankaran

Oggi, 30 Settembre, Mercoledi

Tempo Temperatura Precipitazioni Vento Pressione Umidità
00:00 +7°C° 0 mm 1 m/s 634 mm Hg 74%
01:00 +7°C° 0 mm 1 m/s 634 mm Hg 74%
02:00 +6°C° 0 mm 1 m/s 634 mm Hg 73%
03:00 +6°C° 0 mm 1 m/s 633 mm Hg 71%
04:00 +6°C° 0 mm 1 m/s 633 mm Hg 71%
05:00 +6°C° 0 mm 1 m/s 633 mm Hg 70%
06:00 +6°C° 0 mm 1 m/s 633 mm Hg 70%
07:00 +8°C° 0 mm 1 m/s 633 mm Hg 63%
08:00 +10°C° 0 mm 1 m/s 634 mm Hg 56%
09:00 +12°C° 0 mm 2 m/s 635 mm Hg 52%
10:00 +13°C° 0 mm 2 m/s 635 mm Hg 52%
11:00 +12°C° 0 mm 3 m/s 635 mm Hg 52%
12:00 +13°C° 0 mm 3 m/s 635 mm Hg 52%
13:00 +13°C° 0 mm 3 m/s 634 mm Hg 57%
14:00 +12°C° 0 mm 3 m/s 634 mm Hg 62%
15:00 +12°C° 0 mm 4 m/s 633 mm Hg 67%
16:00 +11°C° 0 mm 3 m/s 633 mm Hg 72%
17:00 +10°C° 0 mm 3 m/s 633 mm Hg 78%
18:00 +9°C° 0 mm 2 m/s 633 mm Hg 84%
19:00 +9°C° 0 mm 2 m/s 633 mm Hg 85%
20:00 +9°C° 0 mm 1 m/s 633 mm Hg 87%
21:00 +9°C° 0 mm 1 m/s 633 mm Hg 88%
22:00 +9°C° 0 mm 1 m/s 633 mm Hg 89%
23:00 +9°C° 0 mm 1 m/s 633 mm Hg 90%

Domani, 1 Ottobre, Giovedi

Tempo Temperatura Precipitazioni Vento Pressione Umidità
00:00 +8°C° 0 mm 0 m/s 633 mm Hg 91%
01:00 +8°C° 0 mm 0 m/s 633 mm Hg 91%
02:00 +8°C° 0 mm 0 m/s 633 mm Hg 91%
03:00 +8°C° 0 mm 0 m/s 633 mm Hg 91%
04:00 +8°C° 0 mm 0 m/s 633 mm Hg 91%
05:00 +8°C° 0 mm 0 m/s 633 mm Hg 90%
06:00 +8°C° 0 mm 0 m/s 634 mm Hg 90%
07:00 +10°C° 0 mm 1 m/s 634 mm Hg 86%
08:00 +11°C° 0 mm 1 m/s 634 mm Hg 83%
09:00 +10°C° 0 mm 2 m/s 635 mm Hg 79%
10:00 +12°C° 0 mm 2 m/s 635 mm Hg 75%
11:00 +13°C° 0 mm 2 m/s 635 mm Hg 72%
12:00 +13°C° 0 mm 3 m/s 635 mm Hg 68%
13:00 +13°C° 0 mm 3 m/s 635 mm Hg 68%
14:00 +13°C° 0 mm 3 m/s 634 mm Hg 68%
15:00 +13°C° 0 mm 3 m/s 634 mm Hg 68%
16:00 +12°C° 0 mm 3 m/s 633 mm Hg 74%
17:00 +12°C° 0 mm 2 m/s 633 mm Hg 80%
18:00 +9°C° 0 mm 2 m/s 633 mm Hg 86%
19:00 +9°C° 0 mm 2 m/s 633 mm Hg 87%
20:00 +10°C° 0 mm 1 m/s 633 mm Hg 87%
21:00 +9°C° 0 mm 1 m/s 633 mm Hg 88%
22:00 +9°C° 0 mm 1 m/s 633 mm Hg 87%
23:00 +9°C° 0 mm 1 m/s 633 mm Hg 86%

Dopodomani, 2 Ottobre, Venerdi

Tempo Temperatura Precipitazioni Vento Pressione Umidità
00:00 +8°C° 0 mm 0 m/s 633 mm Hg 86%
01:00 +8°C° 0 mm 0 m/s 633 mm Hg 86%
02:00 +8°C° 0 mm 0 m/s 633 mm Hg 86%
03:00 +8°C° 0 mm 0 m/s 633 mm Hg 86%
04:00 +8°C° 0 mm 0 m/s 633 mm Hg 85%
05:00 +8°C° 0 mm 0 m/s 633 mm Hg 85%
06:00 +8°C° 0 mm 0 m/s 633 mm Hg 85%
07:00 +11°C° 0 mm 1 m/s 634 mm Hg 76%
08:00 +13°C° 0 mm 1 m/s 635 mm Hg 67%
09:00 +15°C° 0 mm 1 m/s 636 mm Hg 59%
10:00 +16°C° 0 mm 2 m/s 636 mm Hg 56%
11:00 +18°C° 0 mm 2 m/s 636 mm Hg 53%
12:00 +19°C° 0 mm 3 m/s 636 mm Hg 50%
13:00 +19°C° 0 mm 3 m/s 636 mm Hg 51%
14:00 +19°C° 0 mm 3 m/s 636 mm Hg 53%
15:00 +18°C° 0 mm 3 m/s 636 mm Hg 54%
16:00 +17°C° 0 mm 2 m/s 635 mm Hg 61%
17:00 +15°C° 0 mm 2 m/s 635 mm Hg 69%
18:00 +13°C° 0 mm 1 m/s 634 mm Hg 76%
19:00 +13°C° 0.1 mm 1 m/s 634 mm Hg 75%
20:00 +13°C° 0.1 mm 1 m/s 635 mm Hg 74%
21:00 +13°C° 0.1 mm 2 m/s 635 mm Hg 73%
22:00 +13°C° 0.3 mm 1 m/s 635 mm Hg 74%
23:00 +13°C° 0.3 mm 1 m/s 635 mm Hg 75%

3 Ottobre, Sabato

Tempo Temperatura Precipitazioni Vento Pressione Umidità
00:00 +12°C° 0.3 mm 1 m/s 634 mm Hg 77%
01:00 +12°C° 0 mm 1 m/s 634 mm Hg 79%
02:00 +11°C° 0 mm 1 m/s 634 mm Hg 81%
03:00 +11°C° 0 mm 1 m/s 634 mm Hg 83%
04:00 +11°C° 0 mm 1 m/s 634 mm Hg 85%
05:00 +9°C° 0 mm 0 m/s 634 mm Hg 86%
06:00 +9°C° 0 mm 0 m/s 634 mm Hg 88%
07:00 +11°C° 0 mm 1 m/s 635 mm Hg 84%
08:00 +13°C° 0 mm 1 m/s 636 mm Hg 80%
09:00 +14°C° 0 mm 2 m/s 636 mm Hg 76%
10:00 +14°C° 0 mm 2 m/s 636 mm Hg 75%
11:00 +14°C° 0 mm 3 m/s 636 mm Hg 74%
12:00 +14°C° 0 mm 3 m/s 636 mm Hg 73%
13:00 +14°C° 0.1 mm 3 m/s 636 mm Hg 74%
14:00 +14°C° 0.1 mm 3 m/s 636 mm Hg 76%
15:00 +13°C° 0.1 mm 3 m/s 636 mm Hg 77%
16:00 +14°C° 0.1 mm 2 m/s 636 mm Hg 81%
17:00 +13°C° 0.1 mm 2 m/s 636 mm Hg 84%
18:00 +12°C° 0.1 mm 2 m/s 636 mm Hg 88%
19:00 +12°C° 0 mm 1 m/s 636 mm Hg 88%
20:00 +12°C° 0 mm 1 m/s 637 mm Hg 89%
21:00 +10°C° 0 mm 0 m/s 637 mm Hg 89%
22:00 +11°C° 0.1 mm 1 m/s 637 mm Hg 89%
23:00 +11°C° 0.1 mm 1 m/s 636 mm Hg 89%

4 Ottobre, Domenica

Tempo Temperatura Precipitazioni Vento Pressione Umidità
00:00 +11°C° 0.1 mm 1 m/s 636 mm Hg 89%
01:00 +11°C° 0.1 mm 1 m/s 636 mm Hg 89%
02:00 +10°C° 0.1 mm 0 m/s 636 mm Hg 89%
03:00 +9°C° 0.1 mm 0 m/s 636 mm Hg 89%
04:00 +9°C° 0.1 mm 0 m/s 636 mm Hg 89%
05:00 +9°C° 0.1 mm 0 m/s 636 mm Hg 90%
06:00 +9°C° 0.1 mm 0 m/s 636 mm Hg 90%
07:00 +11°C° 0.1 mm 1 m/s 637 mm Hg 86%
08:00 +12°C° 0.1 mm 1 m/s 637 mm Hg 82%
09:00 +13°C° 0.1 mm 1 m/s 638 mm Hg 78%
10:00 +14°C° 0 mm 1 m/s 638 mm Hg 75%
11:00 +14°C° 0 mm 2 m/s 637 mm Hg 73%
12:00 +15°C° 0 mm 2 m/s 637 mm Hg 70%
13:00 +15°C° 0 mm 2 m/s 637 mm Hg 71%
14:00 +15°C° 0 mm 2 m/s 637 mm Hg 72%
15:00 +14°C° 0 mm 3 m/s 637 mm Hg 72%
16:00 +14°C° 0.1 mm 2 m/s 636 mm Hg 77%
17:00 +13°C° 0.1 mm 2 m/s 636 mm Hg 82%
18:00 +12°C° 0.1 mm 2 m/s 636 mm Hg 86%
19:00 +12°C° 0 mm 1 m/s 636 mm Hg 86%
20:00 +11°C° 0 mm 1 m/s 636 mm Hg 86%
21:00 +10°C° 0 mm 0 m/s 637 mm Hg 86%
22:00 +10°C° 0 mm 0 m/s 636 mm Hg 85%
23:00 +11°C° 0 mm 1 m/s 636 mm Hg 85%

5 Ottobre, Lunedi

Tempo Temperatura Precipitazioni Vento Pressione Umidità
00:00 +11°C° 0 mm 1 m/s 636 mm Hg 85%
01:00 +10°C° 0 mm 1 m/s 636 mm Hg 85%
02:00 +10°C° 0 mm 1 m/s 636 mm Hg 85%
03:00 +10°C° 0 mm 1 m/s 635 mm Hg 85%
04:00 +9°C° 0 mm 0 m/s 635 mm Hg 85%
05:00 +9°C° 0 mm 0 m/s 636 mm Hg 85%
06:00 +8°C° 0 mm 0 m/s 636 mm Hg 85%
07:00 +10°C° 0 mm 0 m/s 636 mm Hg 78%
08:00 +13°C° 0 mm 1 m/s 637 mm Hg 71%
09:00 +14°C° 0 mm 1 m/s 638 mm Hg 65%
10:00 +15°C° 0 mm 2 m/s 638 mm Hg 62%
11:00 +16°C° 0 mm 2 m/s 638 mm Hg 60%
12:00 +17°C° 0 mm 3 m/s 638 mm Hg 57%
13:00 +17°C° 0 mm 3 m/s 637 mm Hg 60%
14:00 +17°C° 0 mm 3 m/s 637 mm Hg 63%
15:00 +16°C° 0 mm 3 m/s 636 mm Hg 65%
16:00 +15°C° 0.1 mm 2 m/s 636 mm Hg 71%
17:00 +14°C° 0.1 mm 2 m/s 635 mm Hg 77%
18:00 +12°C° 0.1 mm 1 m/s 635 mm Hg 83%
19:00 +12°C° 0 mm 1 m/s 635 mm Hg 83%
20:00 +12°C° 0 mm 1 m/s 635 mm Hg 82%
21:00 +11°C° 0 mm 0 m/s 636 mm Hg 82%
22:00 +10°C° 0 mm 0 m/s 635 mm Hg 82%
23:00 +10°C° 0 mm 0 m/s 635 mm Hg 81%
Mostrare altro